Location: Paddlesworth
(51.1000°N, 1.1333°E)
Time: 22:14:16
(UTC+00:00)

Cosmos 864 Rocket - Pass Details

Date: 11 May 2021
Orbit: 952 x 992 km, 82.9° (Epoch: 23 June)

Event Time Altitude Azimuth Distance (km) Brightness Sun altitude
Rises 22:57:00 0° 349° (N) 3,660 9.2 -19.7°
Reaches altitude 10° 22:59:31 10° 348° (NNW) 2,705 8.1 -19.8°
Maximum altitude 23:05:42 81° 263° (W) 973 4.4 -20.0°
Enters shadow 23:08:25 36° 181° (S) 1,477 4.9 -20.1°
